Orbital elements:
    P/2005 R2 (Van Ness)
Epoch 2005 Jan. 30.0 TT = JDT 2453400.5
T 2005 Feb. 10.05622 TT                                 MPC
q   2.1282398            (2000.0)            P               Q
n   0.15549942     Peri.    3.08344     +0.71640200     +0.68536451
a   3.4249181      Node   312.72645     -0.64385843     +0.57737848
e   0.3786013      Incl.   10.23683     -0.26872756     +0.44374495
P   6.34
Residuals in seconds of arc
050804 704  1.6+  0.9-    050918 349  0.2-  0.7+    051001 355  0.5+  0.2-
050804 704  0.1-  1.3-    050918 349  0.1-  0.8+    051001 379  0.4+  0.2+
050804 704  0.2+  1.6-    050918 048  0.8-  0.1+    051001 157  0.3+  0.5+
050804 704 (1.8+  2.6-)   050918 048  0.5-  0.3+    051001 157  0.4+  0.8+
050804 704  0.5+  1.1+    050918 048  0.4-  0.2+    051001 157  0.1-  0.2+
050816 704  1.6-  0.1+    050918 048  0.4-  0.2-    051001 939  0.2+  0.1+
050816 704  1.2+  1.7-    050918 048  1.0-  0.2-    051001 939  0.2+  0.1+
050816 704  1.2+  0.9-    050918 J97  0.0   0.1+    051001 939  0.1+  0.0
050816 704  1.9+  1.3+    050918 118  0.0   0.1+    051002 349  0.8+  0.8-
050831 704 (1.0-  2.4-)   050918 118  0.3+  0.2-    051002 349  0.8+  1.0-
050831 704 (4.8-  0.1+)   050918 118  0.1-  0.2+    051002 349  0.8+  0.9-
050831 704  0.0   0.6-    050919 213  0.2+  0.4+    051002 J97  0.1-  0.4-
050831 704  1.2-  1.2+    050919 213  0.3+  0.2+    051002 A32  0.3+  0.2-
050831 704 (1.1+  3.0+)   050919 213  0.2+  0.2+    051002 A32  0.4+  0.0
050910 699(12.8-  6.8-)   050920 048  0.5+  0.3+    051002 A32  0.4+  0.3-
050910 699(20.0-  9.1-)   050920 048  0.0   0.1+    051003 644  0.1+  0.0
050910 699(22.4- 10.0-)   050920 048  0.1+  0.2+    051003 644  0.2+  0.2-
050910 A50  0.5-  0.2+    050920 048  0.3+  0.2+    051003 644  0.2+  0.0
050910 A50  0.6-  0.2+    050920 048  0.3+  0.3+    051003 A32  0.1+  0.1-
050910 A50  0.0   0.0     050921 048  0.1-  0.7+    051003 A32  0.2+  0.0
050910 A50  0.4-  0.3+    050921 048  0.4-  0.6+    051003 A32  0.1+  0.1+
050910 A50  0.4-  0.4+    050921 048  0.3-  0.4+    051003 A32  0.1+  0.0
050910 A50  0.4-  0.4+    050921 048  0.8-  0.2+    051004 118  0.3+  0.0
050910 232  0.3-  0.1+    050921 048  0.4-  0.2+    051004 118  0.2+  0.0
050910 232  0.4-  0.1-    050922 048  0.1-  0.2+    051004 118  0.3+  0.0
050910 232  0.3-  0.2-    050922 048  0.4-  0.2+    051004 118  0.3+  0.1-
050911 232  0.0   0.2-    050922 048  0.2-  0.3+    051004 A70  0.5-  0.0
050911 232  0.0   0.3-    050922 048  0.5-  0.1+    051004 A70  0.6+  0.1-
050911 232  0.2-  0.1-    050922 048  0.7-  0.5+    051004 A70  0.0   0.3+
050911 232  0.2+  0.4-    050922 213  0.1-  0.3+    051004 A70  0.3+  0.3+
050911 232  0.3-  0.0     050922 213  0.0   0.4+    051005 850  0.3+  0.3-
050911 232  0.4-  0.1-    050922 213  0.4-  0.6+    051005 850  0.3+  0.3-
050911 232  0.1-  0.2-    050923 048  0.0   0.1+    051005 850  0.2+  0.3-
050911 232  0.4-  0.2-    050923 048  0.2+  0.4+    051005 850  0.3+  0.3-
050911 232  0.3-  0.1+    050923 048  0.3+  0.3-    051005 850  0.4+  0.3-
050911 I77  0.3-  0.3-    050923 048  0.2+  0.1+    051006 213  0.0   0.5+
050911 I77  0.1-  0.5-    050923 048  0.0   0.0     051006 213  0.1-  0.4+
050911 I77  0.3-  0.3-    050924 048  0.4-  0.0     051006 213  0.1-  0.5+
050911 734  0.0   0.1-    050924 048  0.3-  0.4-    051007 A33  0.0   0.1+
050911 734  0.6+  0.1-    050924 048  0.2+  0.2-    051007 A33  0.1+  0.1+
050911 854  0.4-  0.2+    050924 048  0.1-  0.1-    051007 442  0.5-  0.2+
050911 854  0.5-  0.1+    050924 048  0.4+  0.4-    051007 442  0.5-  0.3+
050911 854  0.4-  0.1+    050925 215  0.3-  0.0     051008 232  0.1+  0.1-
050911 349  0.1-  0.1+    050925 215  0.2-  0.0     051008 232  0.1-  0.3-
050911 349  0.1-  0.1+    050925 215  0.1-  0.1-    051008 232  0.1+  0.3-
050911 349  0.0   0.2-    050926 372  0.9-  0.4-    051008 J76  0.4-  0.1-
050911 349  0.1+  0.1-    050926 372  0.6-  0.8-    051008 J76  0.4-  0.1-
050911 213  0.1-  0.4+    050927 213  0.3-  0.5+    051008 J76  0.6-  0.3-
050911 213  0.0   0.3+    050927 213  0.0   0.3+    051008 A01  0.4-  0.1+
050911 213  0.1+  0.4+    050927 213  0.2-  0.4+    051008 A01  0.3-  0.1+
050912 673  0.5+  0.4+    050927 J68  2.0-  1.5+    051009 A01  0.5-  0.1+
050912 673  0.4+  0.2+    050928 J68  0.4-  0.3-    051009 A33  0.1+  0.1-
050912 673  0.4+  0.1+    050928 J68  0.2+  0.5+    051009 A33  0.0   0.1-
050912 673  0.4+  0.4+    050928 J68  0.0   0.4+    051010 I77  0.6-  0.1-
050912 699 (3.0-  1.2-)   050928 J68  0.2-  0.7+    051010 I77  0.2+  0.7+
050912 699 (5.1-  2.7-)   050928 673  0.1+  0.6+    051010 I77  0.2-  0.4-
050912 699 (5.9-  3.1-)   050928 673  0.0   0.6+    051010 703 (2.7-  3.6-)
050912 699 (6.1-  3.3-)   050928 673  0.1+  0.5+    051010 703 (1.9-  2.8-)
050912 D88  0.6+  0.1+    050928 673  0.1+  0.5+    051010 703 (1.6-  2.3-)
050912 D88  0.6-  0.3+    050929 703 (2.3-  2.3-)   051010 703  1.2-  1.6-
050912 D88  0.2-  0.2-    050929 703 (4.1-  3.2-)   051012 379  0.2-  0.5-
050912 349  0.1-  0.3+    050929 703 (5.2-  3.4-)   051012 379  0.4+  0.6-
050912 349  0.1-  0.3+    050929 703 (6.4-  4.4-)   051012 J97  0.3+  0.3+
050912 349  0.3-  0.2+    050929 379  0.3+  0.3+    051013 D88  0.2+  0.7-
050912 D83  0.3-  0.4-    050929 379  0.2+  0.2+    051013 D88  0.3-  0.3-
050912 D83  1.1-  0.3-    050929 379  0.6+  0.0     051013 D88  0.4-  0.7-
050912 D83  0.0   0.5+    050929 379  0.6+  0.0     051014 147  0.0   0.2-
050912 D83  0.6-  0.5-    050929 379  0.5+  0.0     051014 147  0.1+  0.1-
050912 372  0.2-  0.1+    050929 379  0.0   0.1+    051014 147  0.0   0.1-
050912 372  0.8-  0.7+    050929 355  0.5+  0.1+    051014 147  0.0   0.1-
050912 372  0.6-  0.1+    050929 355  0.2+  0.0     051014 147  0.1-  0.0
050913 204  0.2-  0.0     050929 355  0.2+  0.1+    051015 J76  0.4-  0.2+
050913 204  0.2-  0.1-    050930 H45  0.3+  0.2-    051015 J76  0.1-  0.2+
050913 673  0.2-  1.0+    050930 H45  0.2+  0.1-    051015 J76  0.2-  0.3+
050913 673  0.3-  0.7+    050930 H45  0.3+  0.1-    051015 939  0.7-  0.1-
050913 673  0.4-  0.7+    050930 H45  0.3+  0.1-    051015 J97  0.0   0.5-
050913 673  0.2-  0.7+    050930 349  0.2+  0.1+    051015 J97  0.0   0.6-
050913 673  0.1-  0.7+    050930 349  0.2+  0.1+    051015 939  0.6-  0.1+
050913 673  0.3-  0.6+    050930 349  0.1+  0.2+    051015 J97  0.1-  0.2-
050914 704  1.9+  1.9-    050930 108  0.2+  0.1+    051015 J97  0.0   0.6-
050914 704  0.8-  0.6+    050930 108  0.2+  0.7-    051015 J97  0.5-  0.5-
050914 704  1.9-  1.3-    050930 108  0.1+  0.9-    051015 504  0.2+  1.8+
050914 704  0.4-  0.4+    050930 108  0.5+  1.5-    051015 939  0.5-  0.0
050914 704 (3.4-  1.8+)   050930 J97  0.1+  0.1-    051015 504 (0.1-  2.1+)
050914 349  0.1-  0.4-    050930 J97  0.2-  0.2-    051015 J97  0.2-  0.0
050914 349  0.1+  0.3-    050930 232  0.4+  0.0     051015 504  0.3+  2.0+
050914 349  0.1-  0.1+    050930 232  0.5+  0.0     051015 504  0.5-  0.6+
050914 379  0.4+  0.2-    051001 232  0.7+  0.1+    051015 504  0.2+  1.9+
050914 379  0.4+  0.3-    051001 D88  0.7+  0.2-    051015 504  0.8-  0.6+
050914 379  0.7+  0.4-    051001 D88  0.6+  0.3-    051015 504  0.6-  0.5+
050914 379  0.9+  0.4+    051001 D88  0.7+  0.0     051015 504  0.8-  1.1+
050916 349  0.4-  0.3+    051001 379  0.3+  0.2-    051015 504  0.6-  0.7+
050916 349  0.3-  0.1+    051001 379  0.3+  0.3-    051016 I77  0.4+  0.2+
050916 349  0.4-  0.2+    051001 355  0.6+  0.1-    051016 118  0.0   0.2-
050917 349  0.3-  0.4+    051001 379  0.5+  0.2+    051016 118  0.2+  0.3-
050917 349  0.4-  0.5+    051001 355  0.6+  0.3-    051016 118  0.3-  0.1-
050917 349  0.3-  0.1+    051001 355  0.4+  0.0     051016 I77  0.4+  0.5-
050918 349  0.2-  0.8+    051001 379  0.5+  0.2+    051016 I77  0.2-  0.1+

Brian G. Marsden             (C) Copyright 2005 MPC           M.P.E.C. 2005-U05

Read MPEC 2005-U04 Read MPEC 2005-U06


Our Web policy. Index to the CBAT/MPC/ICQ pages.

